sat.trackr.live / text

‹ back to catalog

STARLINK-3668

NORAD 52002 · 2022-025AY

PAYLOAD ACTIVE UNKNOWN

§ Identity

Operator
Country
US
Launch date
2022-03-09
Launch site
AFETR
Launch vehicle
Mass (kg)
RCS (m²)

Purposes: comms

External: N2YO · Heavens-Above · Gunter

§ Orbital elements

Epoch: 2026-05-24T22:28:58.611936Z

Period
95.44 min
Inclination
53.2131°
Eccentricity
0.0001340
Mean motion
15.08828962 rev/d
Perigee alt
538.9 km
Apogee alt
540.7 km
Semi-major
6,917.9 km
B*
1.2929e-4
RAAN
36.8716°
Arg perigee
70.6042°
Mean anomaly
289.5095°
Rev number
23,243

§ Raw data

STARLINK-36681 52002U 22025AY  26144.93678949  .00001770  00000+0  12929-3 0  99922 52002  53.2131  36.8716 0001340  70.6042 289.5095 15.08828962232435

JSON: /api/v1/satellites/52002 · /tle

For live sub-satellite position, see the globe view (requires WebGL).

§ Visibility from observer

Set your observer location to see the next 7 days of passes ≥ 10°. The values pass through the URL so the page stays shareable.

No JS? Fill the form by hand. The geolocation button needs JavaScript.